Torna al catalogo

KUIPER-00125

AttivoComunicazioniLEO
NORAD 65954·PAYLOAD·🇺🇸 United States

Lanciato Oct 14, 2025 da Cape Canaveral Space Force Station

Loading…

Prossimi Passaggi (prossime 24 ore)

TLE

AggiornatoSource: CelesTrak SupGP

Epoca: Sep 14, 2026, 23:24 UTC

1 65954C 25228H   26257.97500000 -.00002627  00000+0 -34384-3 0  2571
2 65954  51.8991 223.5856 0000991  67.2572 143.2588 14.79937466    11

Traccia KUIPER-00125 in tempo reale con AllMySat

Download on the App Store